| time (UTC) | temp F | wind direction | speed MPH | gust MPH | rain 1hr in | rain 24hr in | rain mn in | humidity % | barometer mb |
| 20260906035508 | 67 | 68 | 0.0 | 2.0 | 0.00 | 0.04 | 0.04 | 98 | 1014.2 |
| 20260906035011 | 67 | 70 | 0.0 | 3.0 | 0.00 | 0.04 | 0.04 | 97 | 1014.3 |
| 20260906034509 | 67 | 70 | 0.0 | 2.0 | 0.00 | 0.04 | 0.04 | 98 | 1014.5 |
| 20260906034008 | 67 | 74 | 0.0 | 2.0 | 0.00 | 0.04 | 0.04 | 98 | 1014.5 |
| 20260906033508 | 67 | 75 | 0.0 | 1.0 | 0.00 | 0.04 | 0.04 | 98 | 1014.5 |
| 20260906033007 | 67 | 75 | 0.0 | 2.0 | 0.00 | 0.04 | 0.04 | 97 | 1014.6 |
| 20260906032508 | 67 | 75 | 0.0 | 2.0 | 0.00 | 0.04 | 0.04 | 97 | 1014.6 |
| 20260906032007 | 67 | 75 | 1.0 | 2.0 | 0.00 | 0.04 | 0.04 | 97 | 1014.6 |
| 20260906031508 | 67 | 75 | 0.0 | 0.0 | 0.00 | 0.04 | 0.04 | 97 | 1014.6 |
| 20260906031008 | 67 | 75 | 0.0 | 2.0 | 0.00 | 0.04 | 0.04 | 97 | 1014.5 |
| 20260906030507 | 67 | 75 | 1.0 | 3.0 | 0.00 | 0.04 | 0.04 | 97 | 1014.5 |
| 20260906025509 | 68 | 74 | 1.0 | 2.0 | 0.00 | 0.04 | 0.04 | 97 | 1014.3 |
| 20260906025009 | 68 | 7 | 1.0 | 2.0 | 0.00 | 0.04 | 0.04 | 97 | 1014.3 |
| 20260906024528 | 68 | 23 | 1.0 | 3.0 | 0.00 | 0.04 | 0.04 | 97 | 1014.3 |
| 20260906024008 | 68 | 72 | 0.0 | 4.0 | 0.00 | 0.04 | 0.04 | 97 | 1014.2 |
| 20260906023508 | 68 | 86 | 1.0 | 2.0 | 0.00 | 0.04 | 0.04 | 97 | 1014.1 |
| 20260906023015 | 68 | 24 | 0.0 | 3.0 | 0.00 | 0.04 | 0.04 | 97 | 1014.0 |
| 20260906022508 | 68 | 24 | 1.0 | 3.0 | 0.00 | 0.04 | 0.04 | 97 | 1013.8 |
| 20260906022008 | 68 | 39 | 1.0 | 3.0 | 0.00 | 0.04 | 0.04 | 97 | 1013.9 |
| 20260906021510 | 68 | 55 | 1.0 | 3.0 | 0.00 | 0.04 | 0.04 | 97 | 1014.1 |
| 20260906021007 | 69 | 79 | 0.0 | 2.0 | 0.00 | 0.04 | 0.04 | 96 | 1014.1 |
| 20260906020508 | 69 | 70 | 0.0 | 1.0 | 0.00 | 0.04 | 0.04 | 96 | 1014.2 |
| 20260906015507 | 69 | 70 | 0.0 | 1.0 | 0.00 | 0.04 | 0.04 | 96 | 1014.1 |
| 20260906015005 | 69 | 70 | 0.0 | 1.0 | 0.00 | 0.04 | 0.04 | 96 | 1013.8 |
| 20260906014509 | 69 | 70 | 0.0 | 1.0 | 0.00 | 0.04 | 0.04 | 96 | 1014.0 |
| 20260906014009 | 69 | 70 | 0.0 | 1.0 | 0.00 | 0.04 | 0.04 | 96 | 1014.0 |
| 20260906013506 | 70 | 70 | 0.0 | 1.0 | 0.00 | 0.04 | 0.04 | 96 | 1014.0 |
| 20260906013015 | 70 | 70 | 0.0 | 1.0 | 0.00 | 0.04 | 0.04 | 96 | 1014.0 |
| 20260906012508 | 70 | 51 | 0.0 | 1.0 | 0.00 | 0.04 | 0.04 | 96 | 1014.0 |
| 20260906012005 | 70 | 50 | 0.0 | 3.0 | 0.00 | 0.04 | 0.04 | 96 | 1013.9 |
| 20260906011506 | 71 | 34 | 1.0 | 3.0 | 0.00 | 0.04 | 0.04 | 96 | 1013.6 |
| 20260906011004 | 71 | 74 | 0.0 | 1.0 | 0.00 | 0.04 | 0.04 | 96 | 1013.4 |
| 20260906010504 | 71 | 60 | 0.0 | 1.0 | 0.00 | 0.04 | 0.04 | 95 | 1013.4 |
| 20260906005505 | 71 | 60 | 0.0 | 1.0 | 0.00 | 0.04 | 0.04 | 95 | 1013.6 |
| 20260906005004 | 71 | 61 | 0.0 | 2.0 | 0.00 | 0.04 | 0.04 | 95 | 1013.5 |
| 20260906004505 | 72 | 61 | 0.0 | 2.0 | 0.00 | 0.04 | 0.04 | 95 | 1013.3 |
| 20260906004003 | 72 | 56 | 0.0 | 1.0 | 0.00 | 0.04 | 0.04 | 94 | 1013.3 |
| 20260906003504 | 72 | 54 | 0.0 | 0.0 | 0.00 | 0.04 | 0.04 | 94 | 1013.0 |
| 20260906003004 | 73 | 54 | 0.0 | 1.0 | 0.00 | 0.04 | 0.04 | 93 | 1012.9 |
| 20260906002503 | 73 | 54 | 0.0 | 1.0 | 0.00 | 0.04 | 0.04 | 93 | 1012.8 |
| 20260906002004 | 73 | 54 | 0.0 | 1.0 | 0.00 | 0.04 | 0.04 | 93 | 1012.8 |
| 20260906001503 | 74 | 54 | 0.0 | 2.0 | 0.00 | 0.04 | 0.04 | 92 | 1012.6 |
| 20260906001003 | 74 | 54 | 0.0 | 2.0 | 0.00 | 0.04 | 0.04 | 92 | 1012.5 |
| 20260906000502 | 74 | 54 | 0.0 | 2.0 | 0.00 | 0.04 | 0.04 | 91 | 1012.4 |
| 20260905235503 | 75 | 57 | 0.0 | 0.0 | 0.00 | 0.04 | 0.04 | 91 | 1012.4 |
| 20260905235004 | 75 | 57 | 0.0 | 1.0 | 0.00 | 0.04 | 0.04 | 90 | 1012.4 |
| 20260905234504 | 76 | 57 | 0.0 | 1.0 | 0.00 | 0.04 | 0.04 | 89 | 1012.3 |
| 20260905234003 | 76 | 57 | 0.0 | 2.0 | 0.00 | 0.04 | 0.04 | 88 | 1012.3 |
| 20260905233503 | 77 | 47 | 0.0 | 2.0 | 0.00 | 0.04 | 0.04 | 87 | 1012.3 |
| 20260905233003 | 77 | 15 | 0.0 | 2.0 | 0.00 | 0.04 | 0.04 | 88 | 1012.3 |
| 20260905232503 | 77 | 295 | 0.0 | 1.0 | 0.00 | 0.04 | 0.04 | 88 | 1012.3 |
| 20260905232003 | 78 | 295 | 0.0 | 1.0 | 0.00 | 0.04 | 0.04 | 87 | 1012.3 |
| 20260905231503 | 78 | 293 | 0.0 | 1.0 | 0.00 | 0.05 | 0.04 | 86 | 1012.3 |
| 20260905231002 | 79 | 294 | 0.0 | 1.0 | 0.00 | 0.05 | 0.04 | 86 | 1012.2 |
| 20260905230503 | 79 | 269 | 0.0 | 2.0 | 0.00 | 0.05 | 0.04 | 85 | 1012.1 |
| 20260905225502 | 82 | 283 | 0.0 | 2.0 | 0.00 | 0.05 | 0.04 | 79 | 1011.8 |
| 20260905225002 | 84 | 311 | 1.0 | 2.0 | 0.00 | 0.05 | 0.04 | 74 | 1011.7 |
| 20260905224502 | 85 | 353 | 0.0 | 2.0 | 0.00 | 0.05 | 0.04 | 73 | 1011.7 |
| 20260905224001 | 85 | 282 | 0.0 | 2.0 | 0.00 | 0.05 | 0.04 | 73 | 1011.8 |
| 20260905223501 | 85 | 210 | 0.0 | 3.0 | 0.00 | 0.05 | 0.04 | 72 | 1011.8 |
| 20260905223001 | 85 | 236 | 1.0 | 3.0 | 0.00 | 0.05 | 0.04 | 71 | 1011.9 |
| 20260905222502 | 85 | 141 | 0.0 | 5.0 | 0.00 | 0.05 | 0.04 | 75 | 1011.9 |
| 20260905222001 | 85 | 147 | 0.0 | 7.0 | 0.00 | 0.05 | 0.04 | 69 | 1011.9 |
| 20260905221500 | 85 | 205 | 3.0 | 8.0 | 0.00 | 0.05 | 0.04 | 71 | 1011.9 |
| 20260905221104 | 85 | 271 | 2.0 | 8.0 | 0.00 | 0.05 | 0.04 | 72 | 1011.8 |
| 20260905220600 | 85 | 215 | 3.0 | 9.0 | 0.00 | 0.05 | 0.04 | 72 | 1011.7 |
| 20260905220201 | 85 | 277 | 4.0 | 15.0 | 0.00 | 0.05 | 0.04 | 69 | 1011.9 |
| 20260905215602 | 85 | 270 | 6.0 | 15.0 | 0.00 | 0.05 | 0.04 | 66 | 1011.9 |
| 20260905215059 | 85 | 153 | 7.0 | 13.0 | 0.00 | 0.05 | 0.04 | 67 | 1011.9 |
| 20260905214601 | 85 | 200 | 5.0 | 10.0 | 0.00 | 0.05 | 0.04 | 70 | 1012.1 |
| 20260905214101 | 85 | 271 | 2.0 | 5.0 | 0.00 | 0.05 | 0.04 | 71 | 1011.9 |
| 20260905213558 | 85 | 303 | 1.0 | 8.0 | 0.00 | 0.05 | 0.04 | 71 | 1011.9 |
| 20260905213105 | 86 | 238 | 3.0 | 8.0 | 0.00 | 0.05 | 0.04 | 72 | 1011.9 |
| 20260905212557 | 86 | 236 | 3.0 | 7.0 | 0.00 | 0.05 | 0.04 | 71 | 1011.9 |
| 20260905212058 | 86 | 163 | 0.0 | 3.0 | 0.00 | 0.05 | 0.04 | 70 | 1011.9 |
| 20260905211600 | 86 | 127 | 1.0 | 6.0 | 0.00 | 0.05 | 0.04 | 70 | 1012.0 |
| 20260905211055 | 85 | 264 | 1.0 | 6.0 | 0.00 | 0.05 | 0.04 | 74 | 1012.3 |
| 20260905210553 | 85 | 198 | 1.0 | 4.0 | 0.00 | 0.05 | 0.04 | 71 | 1012.3 |
| 20260905210154 | 84 | 271 | 3.0 | 7.0 | 0.00 | 0.05 | 0.04 | 71 | 1012.3 |
| 20260905205554 | 84 | 263 | 2.0 | 7.0 | 0.00 | 0.05 | 0.04 | 71 | 1012.3 |
| 20260905205054 | 83 | 228 | 1.0 | 7.0 | 0.00 | 0.05 | 0.04 | 72 | 1012.3 |
| 20260905204554 | 82 | 142 | 0.0 | 7.0 | 0.00 | 0.05 | 0.04 | 76 | 1012.4 |
| 20260905204052 | 81 | 229 | 3.0 | 8.0 | 0.00 | 0.05 | 0.04 | 76 | 1012.7 |
| 20260905203552 | 81 | 211 | 3.0 | 8.0 | 0.00 | 0.05 | 0.04 | 77 | 1012.8 |
| 20260905203055 | 80 | 295 | 3.0 | 7.0 | 0.00 | 0.05 | 0.04 | 76 | 1012.8 |
| 20260905202552 | 80 | 274 | 5.0 | 7.0 | 0.00 | 0.05 | 0.04 | 76 | 1012.9 |
| 20260905202052 | 81 | 266 | 3.0 | 6.0 | 0.00 | 0.05 | 0.04 | 76 | 1012.9 |
| 20260905201609 | 81 | 219 | 1.0 | 9.0 | 0.00 | 0.06 | 0.04 | 77 | 1013.0 |
| 20260905201052 | 80 | 272 | 3.0 | 9.0 | 0.00 | 0.06 | 0.04 | 77 | 1013.0 |
| 20260905200551 | 79 | 231 | 3.0 | 7.0 | 0.00 | 0.06 | 0.04 | 78 | 1013.1 |
| 20260905200151 | 78 | 251 | 3.0 | 7.0 | 0.00 | 0.06 | 0.04 | 80 | 1013.2 |
| 20260905195553 | 78 | 269 | 3.0 | 8.0 | 0.00 | 0.06 | 0.04 | 80 | 1013.2 |
| 20260905195050 | 78 | 289 | 3.0 | 9.0 | 0.00 | 0.06 | 0.04 | 82 | 1013.2 |
| 20260905194551 | 78 | 266 | 6.0 | 9.0 | 0.00 | 0.06 | 0.04 | 80 | 1013.2 |
| 20260905194054 | 78 | 262 | 2.0 | 7.0 | 0.00 | 0.06 | 0.04 | 80 | 1013.2 |
| 20260905193551 | 78 | 235 | 2.0 | 7.0 | 0.00 | 0.06 | 0.04 | 79 | 1013.1 |
| 20260905193104 | 78 | 263 | 2.0 | 6.0 | 0.00 | 0.06 | 0.04 | 79 | 1013.3 |
| 20260905192550 | 78 | 255 | 3.0 | 8.0 | 0.00 | 0.06 | 0.04 | 80 | 1013.3 |
| 20260905192050 | 78 | 220 | 3.0 | 10.0 | 0.00 | 0.06 | 0.04 | 80 | 1013.4 |
| 20260905191550 | 78 | 289 | 5.0 | 10.0 | 0.00 | 0.06 | 0.04 | 79 | 1013.5 |
| 20260905191051 | 78 | 213 | 3.0 | 8.0 | 0.00 | 0.06 | 0.04 | 80 | 1013.3 |
| 20260905190550 | 78 | 8 | 3.0 | 8.0 | 0.00 | 0.06 | 0.04 | 78 | 1013.2 |
| 20260905190150 | 78 | 260 | 4.0 | 9.0 | 0.00 | 0.06 | 0.04 | 79 | 1013.2 |
| 20260905185550 | 77 | 356 | 0.0 | 9.0 | 0.00 | 0.06 | 0.04 | 81 | 1013.3 |
| 20260905185053 | 77 | 281 | 1.0 | 7.0 | 0.00 | 0.06 | 0.04 | 81 | 1013.4 |
| 20260905184554 | 77 | 200 | 2.0 | 10.0 | 0.00 | 0.06 | 0.04 | 80 | 1013.4 |
| 20260905184050 | 77 | 15 | 3.0 | 10.0 | 0.00 | 0.06 | 0.04 | 80 | 1013.2 |
| 20260905183550 | 77 | 178 | 2.0 | 6.0 | 0.00 | 0.06 | 0.04 | 79 | 1013.2 |
| 20260905183050 | 77 | 324 | 2.0 | 7.0 | 0.00 | 0.06 | 0.04 | 81 | 1013.0 |
| 20260905182552 | 77 | 285 | 2.0 | 6.0 | 0.00 | 0.06 | 0.04 | 84 | 1013.1 |
| 20260905182052 | 77 | 243 | 1.0 | 4.0 | 0.00 | 0.06 | 0.04 | 86 | 1012.8 |
| 20260905181605 | 78 | 82 | 1.0 | 5.0 | 0.00 | 0.06 | 0.04 | 83 | 1012.4 |
| 20260905181048 | 80 | 302 | 1.0 | 5.0 | 0.00 | 0.06 | 0.04 | 74 | 1012.4 |
| 20260905180547 | 80 | 1 | 1.0 | 5.0 | 0.00 | 0.06 | 0.04 | 79 | 1013.0 |
| 20260905180147 | 82 | 233 | 2.0 | 17.0 | 0.00 | 0.06 | 0.04 | 74 | 1013.3 |
| 20260905175546 | 82 | 292 | 6.0 | 17.0 | 0.00 | 0.06 | 0.04 | 72 | 1013.6 |
| 20260905175045 | 83 | 211 | 1.0 | 4.0 | 0.00 | 0.06 | 0.04 | 73 | 1014.2 |
| 20260905174545 | 85 | 313 | 0.0 | 7.0 | 0.00 | 0.06 | 0.04 | 73 | 1014.5 |
| 20260905174045 | 86 | 286 | 2.0 | 5.0 | 0.00 | 0.06 | 0.04 | 69 | 1014.4 |
| 20260905173545 | 86 | 53 | 2.0 | 5.0 | 0.01 | 0.06 | 0.04 | 66 | 1014.1 |
| 20260905173046 | 86 | 351 | 2.0 | 5.0 | 0.01 | 0.06 | 0.04 | 67 | 1014.3 |
| 20260905172544 | 87 | 49 | 0.0 | 11.0 | 0.02 | 0.06 | 0.04 | 67 | 1014.5 |
| 20260905172045 | 88 | 39 | 3.0 | 11.0 | 0.02 | 0.06 | 0.04 | 64 | 1014.4 |
| 20260905171545 | 89 | 358 | 2.0 | 6.0 | 0.02 | 0.06 | 0.04 | 64 | 1014.4 |
| 20260905171044 | 89 | 44 | 1.0 | 12.0 | 0.02 | 0.06 | 0.04 | 63 | 1014.4 |
| 20260905170544 | 89 | 27 | 6.0 | 16.0 | 0.02 | 0.06 | 0.04 | 60 | 1014.4 |
| 20260905170143 | 90 | 55 | 6.0 | 16.0 | 0.02 | 0.06 | 0.04 | 60 | 1014.3 |
| 20260905165543 | 91 | 57 | 3.0 | 7.0 | 0.02 | 0.06 | 0.04 | 59 | 1014.2 |
| 20260905165042 | 92 | 99 | 0.0 | 9.0 | 0.02 | 0.06 | 0.04 | 62 | 1014.2 |
| 20260905164543 | 92 | 86 | 3.0 | 9.0 | 0.02 | 0.06 | 0.04 | 58 | 1014.2 |
| 20260905164044 | 93 | 18 | 1.0 | 8.0 | 0.02 | 0.06 | 0.04 | 59 | 1014.1 |
| 20260905163541 | 93 | 96 | 4.0 | 8.0 | 0.01 | 0.05 | 0.03 | 60 | 1014.2 |
| 20260905163039 | 92 | 155 | 1.0 | 5.0 | 0.01 | 0.05 | 0.03 | 61 | 1014.1 |
| 20260905162537 | 92 | 105 | 0.0 | 3.0 | 0.01 | 0.05 | 0.03 | 62 | 1014.1 |
| 20260905162040 | 91 | 148 | 1.0 | 3.0 | 0.00 | 0.04 | 0.02 | 64 | 1014.1 |
| 20260905161549 | 91 | 277 | 0.0 | 1.0 | 0.00 | 0.04 | 0.02 | 70 | 1014.1 |
| 20260905161036 | 90 | 236 | 0.0 | 1.0 | 0.00 | 0.04 | 0.02 | 71 | 1014.4 |
| 20260905160536 | 89 | 79 | 0.0 | 1.0 | 0.00 | 0.04 | 0.02 | 72 | 1014.5 |
| 20260905160139 | 88 | 76 | 1.0 | 3.0 | 0.00 | 0.04 | 0.02 | 72 | 1014.7 |
| 20260905155538 | 89 | 78 | 1.0 | 3.0 | 0.00 | 0.04 | 0.02 | 71 | 1014.7 |
| 20260905155036 | 89 | 83 | 1.0 | 2.0 | 0.01 | 0.04 | 0.02 | 70 | 1014.7 |
| 20260905154540 | 90 | 101 | 0.0 | 3.0 | 0.01 | 0.04 | 0.02 | 67 | 1014.6 |
| 20260905154039 | 91 | 95 | 1.0 | 3.0 | 0.01 | 0.04 | 0.02 | 67 | 1014.7 |
| 20260905153534 | 91 | 104 | 1.0 | 4.0 | 0.01 | 0.04 | 0.02 | 69 | 1014.6 |
| 20260905153033 | 90 | 142 | 0.0 | 4.0 | 0.01 | 0.04 | 0.02 | 70 | 1014.6 |
| 20260905152532 | 90 | 188 | 0.0 | 3.0 | 0.01 | 0.04 | 0.02 | 69 | 1014.4 |
| 20260905152030 | 89 | 207 | 0.0 | 3.0 | 0.01 | 0.04 | 0.02 | 70 | 1014.4 |
| 20260905151531 | 88 | 73 | 0.0 | 3.0 | 0.01 | 0.05 | 0.02 | 72 | 1014.2 |
| 20260905151032 | 87 | 229 | 0.0 | 5.0 | 0.01 | 0.05 | 0.02 | 74 | 1014.2 |
| 20260905150530 | 86 | 226 | 2.0 | 6.0 | 0.01 | 0.05 | 0.02 | 74 | 1014.4 |
| 20260905150127 | 86 | 260 | 2.0 | 4.0 | 0.01 | 0.05 | 0.02 | 74 | 1014.5 |
| 20260905145525 | 86 | 254 | 1.0 | 4.0 | 0.02 | 0.05 | 0.02 | 75 | 1014.6 |
| 20260905145025 | 85 | 220 | 0.0 | 5.0 | 0.02 | 0.05 | 0.02 | 75 | 1014.6 |
| 20260905144524 | 85 | 213 | 1.0 | 5.0 | 0.01 | 0.04 | 0.01 | 77 | 1014.7 |
| 20260905144030 | 84 | 195 | 1.0 | 5.0 | 0.01 | 0.04 | 0.01 | 75 | 1014.7 |
| 20260905143528 | 84 | 259 | 2.0 | 6.0 | 0.01 | 0.04 | 0.01 | 77 | 1014.9 |
| 20260905143026 | 84 | 221 | 1.0 | 6.0 | 0.01 | 0.04 | 0.01 | 79 | 1014.9 |
| 20260905142522 | 85 | 263 | 1.0 | 3.0 | 0.01 | 0.04 | 0.01 | 75 | 1015.0 |
| 20260905142022 | 84 | 141 | 0.0 | 0.0 | 0.01 | 0.04 | 0.01 | 79 | 1015.0 |
| 20260905141522 | 83 | 161 | 0.0 | 1.0 | 0.01 | 0.04 | 0.01 | 80 | 1015.0 |
| 20260905141019 | 82 | 229 | 0.0 | 1.0 | 0.01 | 0.04 | 0.01 | 81 | 1015.0 |
| 20260905140518 | 82 | 75 | 0.0 | 2.0 | 0.01 | 0.04 | 0.01 | 81 | 1015.0 |
| 20260905140117 | 80 | 77 | 0.0 | 2.0 | 0.01 | 0.04 | 0.01 | 83 | 1014.9 |
| 20260905135517 | 80 | 77 | 0.0 | 2.0 | 0.01 | 0.04 | 0.01 | 84 | 1014.9 |
| 20260905135017 | 78 | 77 | 0.0 | 3.0 | 0.00 | 0.03 | 0.00 | 84 | 1014.9 |
| 20260905134514 | 78 | 75 | 1.0 | 3.0 | 0.00 | 0.03 | 0.00 | 85 | 1015.0 |
| 20260905134013 | 77 | 83 | 1.0 | 3.0 | 0.00 | 0.03 | 0.00 | 86 | 1015.0 |
| 20260905133512 | 77 | 85 | 1.0 | 3.0 | 0.00 | 0.03 | 0.00 | 89 | 1015.1 |
| 20260905133011 | 76 | 79 | 0.0 | 2.0 | 0.00 | 0.03 | 0.00 | 91 | 1015.1 |
| 20260905132510 | 76 | 63 | 0.0 | 2.0 | 0.00 | 0.03 | 0.00 | 90 | 1015.3 |
| 20260905132011 | 76 | 54 | 0.0 | 2.0 | 0.00 | 0.03 | 0.00 | 90 | 1015.2 |
| 20260905131506 | 75 | 54 | 0.0 | 1.0 | 0.00 | 0.03 | 0.00 | 92 | 1015.2 |
| 20260905131008 | 74 | 54 | 0.0 | 1.0 | 0.00 | 0.03 | 0.00 | 94 | 1015.4 |
| 20260905130505 | 73 | 54 | 0.0 | 1.0 | 0.00 | 0.03 | 0.00 | 95 | 1015.5 |
| 20260905130104 | 72 | 54 | 0.0 | 3.0 | 0.00 | 0.03 | 0.00 | 97 | 1015.6 |
| 20260905125503 | 72 | 53 | 0.0 | 3.0 | 0.00 | 0.03 | 0.00 | 97 | 1015.8 |
| 20260905125004 | 71 | 56 | 0.0 | 4.0 | 0.00 | 0.03 | 0.00 | 98 | 1015.8 |
| 20260905124604 | 71 | 57 | 2.0 | 4.0 | 0.00 | 0.03 | 0.00 | 99 | 1015.9 |
| 20260905124100 | 70 | 40 | 1.0 | 3.0 | 0.00 | 0.03 | 0.00 | 100 | 1015.9 |
| 20260905123558 | 69 | 72 | 0.0 | 3.0 | 0.00 | 0.03 | 0.00 | 100 | 1015.9 |
| 20260905123058 | 69 | 40 | 1.0 | 5.0 | 0.00 | 0.03 | 0.00 | 100 | 1015.8 |
| 20260905122557 | 68 | 46 | 3.0 | 5.0 | 0.00 | 0.03 | 0.00 | 100 | 1015.7 |
| 20260905122057 | 68 | 52 | 1.0 | 4.0 | 0.00 | 0.03 | 0.00 | 100 | 1015.7 |
| 20260905121559 | 68 | 66 | 0.0 | 3.0 | 0.00 | 0.03 | 0.00 | 100 | 1015.8 |
| 20260905121056 | 67 | 51 | 0.0 | 3.0 | 0.00 | 0.03 | 0.00 | 100 | 1015.7 |
| 20260905120558 | 67 | 51 | 1.0 | 3.0 | 0.00 | 0.03 | 0.00 | 100 | 1015.5 |
| 20260905120056 | 67 | 72 | 0.0 | 1.0 | 0.00 | 0.03 | 0.00 | 100 | 1015.5 |
| 20260905115555 | 67 | 72 | 0.0 | 1.0 | 0.00 | 0.03 | 0.00 | 100 | 1015.5 |
| 20260905115056 | 66 | 72 | 0.0 | 3.0 | 0.00 | 0.03 | 0.00 | 100 | 1015.3 |
| 20260905114654 | 66 | 72 | 0.0 | 3.0 | 0.00 | 0.03 | 0.00 | 100 | 1015.2 |
| 20260905114054 | 67 | 53 | 0.0 | 2.0 | 0.00 | 0.03 | 0.00 | 100 | 1015.2 |
| 20260905113554 | 66 | 54 | 0.0 | 2.0 | 0.00 | 0.03 | 0.00 | 100 | 1015.1 |
| 20260905113053 | 66 | 63 | 1.0 | 2.0 | 0.00 | 0.03 | 0.00 | 100 | 1015.1 |
| 20260905112554 | 66 | 68 | 1.0 | 2.0 | 0.00 | 0.03 | 0.00 | 100 | 1015.0 |
| 20260905112053 | 67 | 68 | 0.0 | 1.0 | 0.00 | 0.03 | 0.00 | 100 | 1014.9 |
| 20260905111604 | 67 | 68 | 0.0 | 1.0 | 0.00 | 0.03 | 0.00 | 100 | 1014.9 |
| 20260905111054 | 66 | 68 | 0.0 | 1.0 | 0.00 | 0.03 | 0.00 | 100 | 1014.7 |
| 20260905110552 | 66 | 56 | 0.0 | 1.0 | 0.00 | 0.03 | 0.00 | 100 | 1014.5 |
| 20260905110058 | 67 | 56 | 0.0 | 2.0 | 0.00 | 0.03 | 0.00 | 100 | 1014.5 |
| 20260905105553 | 67 | 56 | 0.0 | 2.0 | 0.00 | 0.03 | 0.00 | 100 | 1014.5 |
| 20260905105054 | 67 | 56 | 0.0 | 2.0 | 0.00 | 0.03 | 0.00 | 100 | 1014.5 |
| 20260905104610 | 67 | 59 | 0.0 | 2.0 | 0.00 | 0.03 | 0.00 | 100 | 1014.4 |
| 20260905104052 | 67 | 65 | 1.0 | 2.0 | 0.00 | 0.03 | 0.00 | 100 | 1014.5 |
| 20260905103552 | 67 | 46 | 0.0 | 2.0 | 0.00 | 0.03 | 0.00 | 100 | 1014.6 |
| 20260905103052 | 67 | 37 | 0.0 | 1.0 | 0.00 | 0.03 | 0.00 | 100 | 1014.5 |
| 20260905102552 | 67 | 20 | 0.0 | 1.0 | 0.00 | 0.03 | 0.00 | 100 | 1014.5 |
| 20260905102051 | 67 | 20 | 0.0 | 3.0 | 0.00 | 0.03 | 0.00 | 100 | 1014.5 |
| 20260905101554 | 67 | 18 | 2.0 | 3.0 | 0.00 | 0.03 | 0.00 | 100 | 1014.6 |
| 20260905101051 | 67 | 66 | 0.0 | 0.0 | 0.00 | 0.03 | 0.00 | 100 | 1014.4 |
| 20260905100550 | 67 | 72 | 0.0 | 0.0 | 0.00 | 0.03 | 0.00 | 100 | 1014.4 |
| 20260905100057 | 67 | 58 | 0.0 | 0.0 | 0.00 | 0.03 | 0.00 | 99 | 1014.5 |
| 20260905095549 | 67 | 58 | 0.0 | 0.0 | 0.00 | 0.03 | 0.00 | 99 | 1014.4 |
| 20260905095050 | 67 | 58 | 0.0 | 0.0 | 0.00 | 0.03 | 0.00 | 100 | 1014.4 |
| 20260905094549 | 67 | 58 | 0.0 | 0.0 | 0.00 | 0.03 | 0.00 | 100 | 1014.5 |
| 20260905094048 | 67 | 53 | 0.0 | 0.0 | 0.00 | 0.03 | 0.00 | 100 | 1014.4 |
| 20260905093548 | 67 | 54 | 0.0 | 0.0 | 0.00 | 0.03 | 0.00 | 100 | 1014.4 |
| 20260905093048 | 67 | 54 | 0.0 | 0.0 | 0.00 | 0.03 | 0.00 | 100 | 1014.4 |
| 20260905092549 | 67 | 53 | 0.0 | 0.0 | 0.00 | 0.03 | 0.00 | 100 | 1014.4 |
| 20260905092047 | 67 | 55 | 0.0 | 0.0 | 0.00 | 0.03 | 0.00 | 99 | 1014.3 |
| 20260905091606 | 67 | 56 | 0.0 | 0.0 | 0.00 | 0.03 | 0.00 | 99 | 1014.4 |
| 20260905091049 | 67 | 60 | 0.0 | 0.0 | 0.00 | 0.03 | 0.00 | 99 | 1014.4 |
| 20260905090547 | 67 | 60 | 0.0 | 0.0 | 0.00 | 0.03 | 0.00 | 99 | 1014.4 |
| 20260905090046 | 68 | 60 | 0.0 | 0.0 | 0.00 | 0.03 | 0.00 | 99 | 1014.4 |
| 20260905085546 | 68 | 60 | 0.0 | 0.0 | 0.00 | 0.03 | 0.00 | 99 | 1014.4 |
| 20260905085045 | 68 | 60 | 0.0 | 0.0 | 0.00 | 0.03 | 0.00 | 99 | 1014.5 |
| 20260905084606 | 68 | 44 | 0.0 | 0.0 | 0.00 | 0.03 | 0.00 | 100 | 1014.5 |
| 20260905084045 | 68 | 44 | 0.0 | 0.0 | 0.00 | 0.03 | 0.00 | 100 | 1014.7 |
| 20260905083544 | 68 | 44 | 0.0 | 0.0 | 0.00 | 0.03 | 0.00 | 100 | 1014.6 |
| 20260905083043 | 68 | 44 | 0.0 | 0.0 | 0.00 | 0.03 | 0.00 | 99 | 1014.7 |
| 20260905082543 | 68 | 44 | 0.0 | 0.0 | 0.00 | 0.03 | 0.00 | 99 | 1014.7 |
| 20260905082042 | 68 | 44 | 0.0 | 0.0 | 0.00 | 0.03 | 0.00 | 99 | 1014.7 |
| 20260905081542 | 68 | 44 | 0.0 | 0.0 | 0.00 | 0.03 | 0.00 | 100 | 1014.8 |
| 20260905081040 | 68 | 37 | 0.0 | 0.0 | 0.00 | 0.03 | 0.00 | 100 | 1014.8 |
| 20260905080540 | 68 | 58 | 0.0 | 0.0 | 0.00 | 0.03 | 0.00 | 99 | 1014.9 |
| 20260905080042 | 68 | 62 | 0.0 | 0.0 | 0.00 | 0.03 | 0.00 | 99 | 1014.9 |
| 20260905075538 | 68 | 62 | 0.0 | 0.0 | 0.00 | 0.03 | 0.00 | 99 | 1014.9 |
| 20260905075038 | 68 | 62 | 0.0 | 0.0 | 0.00 | 0.03 | 0.00 | 99 | 1015.1 |
| 20260905074540 | 69 | 58 | 0.0 | 0.0 | 0.00 | 0.03 | 0.00 | 99 | 1015.1 |
| 20260905074037 | 69 | 40 | 0.0 | 0.0 | 0.00 | 0.03 | 0.00 | 100 | 1015.1 |
| 20260905073537 | 68 | 40 | 0.0 | 0.0 | 0.00 | 0.03 | 0.00 | 99 | 1015.2 |
| 20260905073039 | 69 | 40 | 0.0 | 0.0 | 0.00 | 0.03 | 0.00 | 99 | 1015.2 |
| 20260905072540 | 69 | 40 | 0.0 | 0.0 | 0.00 | 0.03 | 0.00 | 99 | 1015.2 |
| 20260905072036 | 69 | 38 | 0.0 | 0.0 | 0.00 | 0.03 | 0.00 | 99 | 1015.3 |
| 20260905071542 | 69 | 38 | 0.0 | 0.0 | 0.00 | 0.03 | 0.00 | 100 | 1015.2 |
| 20260905071037 | 69 | 60 | 0.0 | 0.0 | 0.00 | 0.03 | 0.00 | 99 | 1015.3 |
| 20260905070534 | 69 | 67 | 0.0 | 0.0 | 0.00 | 0.03 | 0.00 | 99 | 1015.3 |
| 20260905070100 | 69 | 64 | 0.0 | 0.0 | 0.00 | 0.03 | 0.00 | 99 | 1015.5 |
| 20260905065536 | 69 | 64 | 0.0 | 0.0 | 0.00 | 0.03 | 0.00 | 99 | 1015.5 |
| 20260905065032 | 69 | 64 | 0.0 | 0.0 | 0.00 | 0.03 | 0.00 | 99 | 1015.5 |
| 20260905064533 | 69 | 65 | 0.0 | 0.0 | 0.00 | 0.03 | 0.00 | 99 | 1015.5 |
| 20260905064033 | 69 | 65 | 0.0 | 0.0 | 0.00 | 0.03 | 0.00 | 99 | 1015.5 |
| 20260905063531 | 69 | 68 | 0.0 | 0.0 | 0.00 | 0.03 | 0.00 | 99 | 1015.6 |
| 20260905063031 | 69 | 68 | 0.0 | 0.0 | 0.00 | 0.03 | 0.00 | 99 | 1015.5 |
| 20260905062530 | 69 | 60 | 0.0 | 0.0 | 0.00 | 0.03 | 0.00 | 99 | 1015.7 |
| 20260905062030 | 69 | 60 | 0.0 | 0.0 | 0.00 | 0.03 | 0.00 | 99 | 1015.8 |
| 20260905061528 | 69 | 60 | 0.0 | 0.0 | 0.00 | 0.03 | 0.03 | 99 | 1015.9 |
| 20260905061027 | 69 | 60 | 0.0 | 0.0 | 0.00 | 0.03 | 0.03 | 99 | 1015.9 |
| 20260905060528 | 69 | 84 | 0.0 | 0.0 | 0.00 | 0.03 | 0.03 | 99 | 1016.1 |
| 20260905060028 | 70 | 84 | 0.0 | 0.0 | 0.00 | 0.03 | 0.03 | 99 | 1016.1 |
| 20260905055528 | 70 | 84 | 0.0 | 0.0 | 0.00 | 0.03 | 0.03 | 99 | 1016.1 |
| 20260905055028 | 70 | 61 | 0.0 | 0.0 | 0.00 | 0.03 | 0.03 | 99 | 1016.2 |
| 20260905054543 | 70 | 61 | 0.0 | 0.0 | 0.00 | 0.03 | 0.03 | 99 | 1016.2 |
| 20260905054031 | 70 | 61 | 0.0 | 0.0 | 0.00 | 0.03 | 0.03 | 99 | 1016.2 |
| 20260905053529 | 70 | 61 | 0.0 | 0.0 | 0.00 | 0.03 | 0.03 | 99 | 1016.2 |
| 20260905053039 | 70 | 60 | 0.0 | 0.0 | 0.00 | 0.03 | 0.03 | 99 | 1016.3 |
| 20260905052529 | 70 | 60 | 0.0 | 2.0 | 0.00 | 0.03 | 0.03 | 99 | 1016.3 |
| 20260905052030 | 70 | 71 | 0.0 | 2.0 | 0.00 | 0.03 | 0.03 | 99 | 1016.4 |
| 20260905051537 | 70 | 71 | 0.0 | 1.0 | 0.00 | 0.03 | 0.03 | 99 | 1016.3 |
| 20260905051026 | 70 | 71 | 0.0 | 1.0 | 0.00 | 0.03 | 0.03 | 99 | 1016.3 |
| 20260905050527 | 70 | 71 | 0.0 | 1.0 | 0.00 | 0.03 | 0.03 | 99 | 1016.2 |
| 20260905050027 | 71 | 71 | 0.0 | 2.0 | 0.00 | 0.03 | 0.03 | 99 | 1016.3 |
| 20260905045527 | 70 | 71 | 0.0 | 2.0 | 0.00 | 0.03 | 0.03 | 99 | 1016.3 |
| 20260905045030 | 71 | 75 | 0.0 | 1.0 | 0.00 | 0.03 | 0.03 | 99 | 1016.3 |
| 20260905044526 | 71 | 75 | 0.0 | 1.0 | 0.00 | 0.03 | 0.03 | 99 | 1016.3 |
| 20260905044026 | 71 | 75 | 0.0 | 1.0 | 0.00 | 0.03 | 0.03 | 99 | 1016.2 |
| 20260905043526 | 71 | 75 | 0.0 | 1.0 | 0.00 | 0.03 | 0.03 | 99 | 1016.3 |
| 20260905043029 | 71 | 63 | 0.0 | 2.0 | 0.00 | 0.03 | 0.03 | 99 | 1016.3 |
| 20260905042526 | 71 | 65 | 0.0 | 2.0 | 0.00 | 0.03 | 0.03 | 99 | 1016.1 |
| 20260905042026 | 71 | 65 | 0.0 | 0.0 | 0.00 | 0.03 | 0.03 | 99 | 1016.1 |
| 20260905041527 | 71 | 65 | 0.0 | 0.0 | 0.00 | 0.03 | 0.03 | 99 | 1016.1 |
| 20260905041026 | 71 | 65 | 0.0 | 1.0 | 0.00 | 0.03 | 0.03 | 98 | 1016.1 |
| 20260905040527 | 71 | 65 | 0.0 | 1.0 | 0.00 | 0.03 | 0.03 | 98 | 1016.0 |